星链-2078 (STARLINK-2078 )

导读 | 星芒AI

STARLINK-2078 是 SpaceX Starlink 卫星互联网项目中的第 2078 颗卫星,属于低轨卫星群,旨在为全球用户提供高速互联网服务。该卫星采用先进推进系统和激光通信技术,提高网络稳定性和传输效率。它于近期成功发射并进入预定轨道,进一步扩展 Starlink 的覆盖范围,支持偏远地区通信需求,并增强整体星座的冗余与可靠性。

基本信息
目录编号:
47675
目录名称:
STARLINK-2078
国际标识:
2021-012BH
轨道中心:
EARTH
卫星名称:
星链-2078
卫星全名:
星链-2078 (STARLINK-2078 )
卫星状态:
已陨落 最后检测时间 2025-03-18
发射日期:
2021-02-16 UTC
国别 :
美国 (US)
星等 :
--
轨道信息
数据来源 国际轨道数据
星历时间: 2025-03-17T23:56:47+0800
轨道信息已过期274天
半长轴: 6540.306km
偏心率: 0.0003275
轨道倾角: 53.032°
近地点辐角 286.592°
升交点赤经 169.092°
平近点角 245.888°
近地点: 160.029km
远地点: 164.313km
周期: 87.732分钟
每日圈数: 16.413669
详细信息
固有亮度:
5
最大亮度:
2.5
卫星平台:
Starlink V1.0
覆盖范围:
全球
运营商:
太空探索技术公司
运营商所在国:
美国
制造商(研发单位):
太空探索技术公司
制造商所在国:
美国
使用方式:
暂无
卫星简介
星链(Starlink)计划是由太空探索技术公司(SpaceX)提出的一个巨型低轨卫星互联网星座项目,计划在2019年至2024年间在太空搭建由约1.2万颗卫星组成的“星链”网络,其中1584颗将部署在地球上空550千米处的近地轨道,并从2020年开始工作。该卫星仍在工作。